Location: Springfield
(37.2150°N, 93.2980°W)
Time: 08:42:58
(UTC-06:00)

N. Korean satellite - Pass Details

Date: 22 October 2019
Orbit: 456 x 506 km, 97.2° (Epoch: 14 November)

Event Time Altitude Azimuth Distance (km) Brightness Sun altitude
Rises 18:56:06 0° 190° (S) 2,457 10.4 -6.5°
Reaches altitude 10° 18:58:19 10° 203° (SSW) 1,590 9.6 -6.9°
Maximum altitude 19:01:17 27° 263° (W) 907 9.0 -7.5°
Drops below altitude 10° 19:04:17 10° 324° (NW) 1,612 9.6 -8.1°
Sets 19:06:33 0° 336° (NNW) 2,498 10.4 -8.5°
